Temperature
22 22 21 21 20 20 22 25 27 27 27 27 27 27 25 24 23 22 22 22 22 21 21 20 20 20 20 20 20 20 19 19 19 19 19 19 19 19 19 19 19 19 18 18 18 18 18 18 18
23 22 21 20 20 21 23 26 27 27 27 27 27 26 25 24 23 22 21 22 22 21 21 20 20 20 20 20 20 19 19 19 19 19 19 19 19 19 19 18 18 18 18 18 18 18 18 18 18
22 22 21 19 21 22 24 27 27 28 28 27 26 26 25 23 22 22 22 22 22 21 21 21 20 20 20 20 19 19 19 19 19 19 19 19 18 18 18 18 18 18 18 18 18 18 18 18 17
22 22 21 20 22 23 25 27 28 28 28 27 26 25 25 24 24 23 22 22 22 21 21 21 20 20 20 20 19 19 19 19 19 19 19 18 18 18 18 18 18 18 18 18 18 18 18 18 17
22 22 20 20 22 25 27 28 28 27 27 26 25 24 24 24 24 23 23 22 22 21 21 21 20 20 20 20 19 19 19 19 19 18 18 18 18 18 18 18 18 18 18 18 18 18 18 18 17
22 20 20 21 23 26 27 28 28 27 26 26 25 24 23 23 24 23 22 22 22 22 21 21 20 20 20 20 19 19 19 19 18 18 18 18 18 18 18 18 18 18 18 18 18 18 18 18 17
22 20 21 23 24 26 28 29 28 27 26 26 25 23 22 21 23 22 22 22 22 21 21 21 20 20 20 20 19 19 19 19 18 18 18 18 18 18 18 18 18 18 18 18 18 18 18 17 17
24 20 22 23 24 26 28 29 28 27 26 26 25 23 22 21 22 22 21 22 21 21 21 21 20 20 20 19 19 19 19 19 19 18 18 18 18 18 18 18 18 18 18 18 18 18 18 18 17
25 21 21 23 25 26 28 28 28 28 27 26 26 25 24 22 22 21 21 21 21 21 21 21 20 20 20 20 19 19 19 19 19 18 18 18 18 18 18 18 18 18 18 18 18 18 18 18 17
24 20 22 25 26 26 28 28 27 27 26 25 25 25 23 22 21 21 21 20 21 21 21 20 20 20 20 20 19 19 19 19 19 18 18 18 18 18 18 18 18 18 18 18 18 18 18 18 17
23 23 25 27 28 28 27 28 28 26 25 24 24 24 23 22 21 21 21 21 21 21 21 20 20 20 20 20 20 19 19 19 19 18 18 18 18 18 18 18 18 18 18 18 18 18 18 18 18
25 25 27 28 29 28 28 27 27 27 26 27 26 25 23 22 22 21 21 21 21 21 21 21 20 20 20 20 20 19 19 19 19 18 18 18 18 18 18 18 18 18 18 18 18 18 18 18 18
25 26 28 28 29 28 28 27 27 27 27 26 25 24 24 23 22 22 22 21 21 21 21 21 20 20 20 20 20 19 19 19 19 18 18 18 18 18 18 18 18 18 18 18 18 18 18 18 18
26 27 27 28 28 28 27 27 27 26 26 25 24 24 24 23 23 22 21 21 21 21 21 20 20 20 20 20 20 19 19 19 19 18 18 18 18 18 18 18 18 18 18 18 18 18 18 18 17
27 26 26 26 27 28 27 26 26 26 25 24 24 24 24 23 23 22 22 22 21 21 21 20 20 20 20 20 19 19 19 19 19 18 18 18 18 18 18 18 18 18 18 18 18 18 18 17 17
25 25 24 26 27 28 27 25 25 26 25 23 23 23 23 23 23 23 22 22 22 21 21 20 20 20 20 19 19 19 19 19 19 18 18 18 18 18 18 18 18 18 18 18 18 18 18 18 17
23 23 24 25 27 27 26 24 25 25 24 24 23 23 23 23 22 22 22 22 22 21 21 20 20 20 19 19 19 19 19 19 19 18 18 18 18 18 18 18 18 18 18 18 18 18 18 18 17
22 23 24 25 26 27 25 24 24 25 24 24 23 23 23 23 23 23 22 22 22 21 21 20 20 20 19 19 19 19 19 19 19 18 18 18 18 18 18 18 18 18 18 18 17 18 18 18 17
24 24 24 25 27 26 25 24 24 24 24 24 23 23 22 23 23 22 22 22 21 21 20 20 20 20 19 19 19 19 18 18 18 18 18 18 18 18 18 18 18 18 17 18 17 17 17 17 17
25 24 24 25 26 26 24 24 24 24 23 24 23 22 22 22 22 22 22 21 21 21 20 20 20 20 19 19 19 19 19 19 18 18 18 18 18 18 18 18 18 18 17 17 17 17 17 17 17
25 24 24 25 26 25 24 23 23 23 23 23 23 23 22 22 22 22 21 21 21 20 20 20 20 19 19 19 19 18 18 18 18 18 18 18 18 18 18 18 18 18 18 17 18 17 17 17 17
24 26 26 26 24 22 24 21 22 22 22 22 22 22 22 22 22 21 21 21 20 20 20 20 19 19 19 19 18 18 18 18 18 18 18 18 18 18 18 18 18 18 18 17 17 17 17 17 17
25 26 26 26 24 22 22 21 21 21 21 21 21 21 22 22 22 21 21 21 20 20 20 19 19 19 19 18 18 18 18 19 19 18 18 18 18 18 18 18 18 18 18 17 17 17 17 17 17
27 26 24 22 20 21 21 21 21 20 20 21 21 21 21 21 21 21 21 20 20 20 19 19 19 19 19 18 18 18 18 18 18 18 18 18 18 18 18 18 18 18 18 17 17 17 17 17 17
26 22 21 21 20 20 21 21 20 20 21 21 21 21 21 21 21 21 20 20 20 19 19 19 19 19 18 18 18 18 18 18 18 18 18 18 18 18 18 18 18 18 18 17 17 17 17 17 17
24 22 20 21 20 20 21 21 20 21 21 21 21 21 21 21 21 20 20 20 20 19 19 19 19 18 18 18 18 18 18 18 18 18 18 18 18 18 18 18 18 17 17 17 17 17 17 17 17
25 23 21 20 21 20 20 20 20 21 20 20 20 20 20 21 20 20 20 20 20 19 19 19 18 18 18 18 18 18 18 18 18 18 18 18 18 18 18 18 17 17 17 17 17 17 17 17 17
25 24 20 20 20 20 21 20 19 20 20 20 19 19 20 20 20 20 20 20 20 19 19 19 18 18 18 18 18 18 17 17 18 17 18 18 18 17 17 17 17 17 17 17 17 17 17 17 17
25 24 21 19 19 20 20 20 21 19 19 19 19 19 20 20 20 20 20 20 19 19 19 18 18 18 18 17 17 17 17 17 17 17 18 18 17 17 17 17 17 17 17 17 17 17 17 17 17
24 23 20 20 20 19 19 19 20 19 19 19 19 20 20 20 20 20 20 20 19 19 18 18 18 18 18 18 18 17 17 17 17 17 17 17 17 17 17 17 17 17 17 17 17 17 17 17 17
Wind_Speed
9 7 3 0 2 3 2 3 2 5 4 6 9 11 10 6 5 5 7 17 21 19 19 22 22 22 21 21 20 19 19 18 18 18 18 18 17 17 17 16 16 16 16 16 16 16 16 16 17
5 5 1 2 3 2 3 1 5 6 7 10 10 11 9 6 7 10 10 18 22 19 19 21 23 23 22 21 20 19 19 18 18 17 17 17 17 17 16 16 16 16 16 15 15 15 15 16 16
4 3 1 2 1 3 2 1 6 7 9 9 6 6 6 7 10 7 13 22 20 17 18 22 24 23 22 21 20 19 19 18 17 17 17 16 16 16 16 16 15 15 15 15 15 15 14 14 14
2 2 2 2 4 7 7 6 5 8 8 8 9 6 4 6 8 13 22 22 20 16 18 22 24 23 22 22 20 19 19 18 17 17 16 16 16 16 16 15 15 15 14 14 14 14 13 13 13
2 3 2 2 5 6 7 6 6 9 5 7 10 6 4 4 18 24 22 22 20 15 16 21 24 23 22 22 21 20 19 18 17 17 16 16 16 16 16 15 15 14 14 13 13 12 12 11 11
2 3 2 3 6 5 4 4 5 8 9 9 9 6 3 11 21 22 20 19 19 18 15 20 23 23 23 22 21 20 19 18 17 17 16 16 16 15 15 15 14 14 13 12 12 11 10 10 10
3 2 3 4 5 6 4 2 7 7 8 8 10 6 5 12 18 20 18 17 17 16 14 14 19 21 22 22 21 20 19 18 17 17 16 16 15 15 15 14 14 13 13 11 10 10 9 8 8
5 2 3 3 4 4 3 1 6 10 8 10 9 9 10 14 18 19 18 16 15 14 13 11 14 16 17 19 21 20 20 18 18 17 17 16 16 15 15 14 13 13 12 11 10 9 7 7 7
2 2 4 5 4 3 2 2 2 5 9 5 4 7 14 22 22 21 18 16 14 14 11 11 11 12 14 16 19 19 19 18 18 16 17 15 13 13 13 13 13 12 11 9 9 8 7 6 6
5 4 9 7 5 3 2 2 3 4 7 5 6 9 18 23 24 23 22 21 18 17 14 12 12 11 13 14 15 14 15 15 14 13 14 12 12 11 12 13 12 11 10 9 7 6 5 4 5
7 8 8 9 8 6 3 2 3 8 5 8 13 16 19 20 21 22 22 22 21 19 17 14 13 12 11 8 12 10 11 12 12 13 13 12 10 9 9 9 9 9 9 6 5 4 3 3 3
6 10 11 11 9 5 4 3 3 6 9 12 18 21 18 19 20 21 21 20 20 19 18 16 14 12 10 10 9 9 8 9 9 12 13 11 7 6 7 6 6 6 6 5 4 3 3 3 4
9 11 11 11 9 4 2 3 3 4 8 12 16 17 17 17 16 16 17 18 19 18 18 18 15 13 11 9 8 9 8 8 11 12 13 13 7 5 5 5 6 7 6 5 4 4 3 3 4
8 9 9 9 8 4 2 3 2 4 11 14 16 14 13 15 14 14 16 18 19 19 18 17 16 14 12 11 9 8 9 10 11 11 13 14 11 8 6 5 5 6 7 7 6 5 3 3 4
6 8 9 7 4 3 2 3 2 7 12 14 14 13 13 13 13 15 18 20 20 19 18 17 17 14 14 12 11 9 10 11 9 10 13 14 13 11 8 5 4 5 7 7 4 3 3 3 3
6 4 5 8 4 4 3 4 5 8 13 12 12 12 11 11 13 14 16 18 18 18 18 17 17 15 14 12 10 8 9 9 8 10 11 13 13 13 9 5 4 6 6 5 3 3 3 3 3
4 3 6 9 5 3 3 4 6 6 12 12 12 12 11 11 12 14 15 16 17 18 18 17 14 15 13 11 8 8 8 8 9 10 10 11 12 12 9 5 4 6 5 3 3 2 3 3 3
5 5 6 7 5 2 0 4 4 4 8 11 12 11 12 13 14 14 14 15 15 15 16 16 14 14 12 9 7 6 7 6 7 7 8 11 10 11 9 5 6 6 4 3 3 3 2 2 3
7 8 10 11 7 2 2 4 4 4 4 6 8 10 11 11 10 12 13 14 14 14 14 15 14 13 11 8 8 7 7 7 6 6 9 10 10 10 8 5 5 5 5 5 5 3 3 2 2
9 10 10 9 5 1 1 3 3 3 6 8 9 10 11 9 8 11 12 13 13 14 14 14 13 13 12 9 7 6 6 5 6 5 7 10 10 10 9 7 6 6 5 5 5 4 3 1 2
11 10 9 7 4 3 2 5 4 3 2 3 6 8 9 12 13 13 13 13 13 14 15 15 13 13 12 10 7 6 4 3 4 5 6 7 10 10 8 8 6 6 6 5 5 5 5 3 1
11 11 10 6 1 3 1 2 7 3 3 2 4 6 8 9 10 11 12 12 14 13 12 12 13 12 11 11 10 10 8 7 7 6 6 6 9 9 9 9 8 6 5 6 6 5 4 5 3
11 10 6 3 2 1 4 1 7 3 3 3 4 6 6 9 11 12 12 13 12 11 11 11 11 11 11 11 12 11 8 7 5 5 7 7 6 8 9 9 8 7 6 6 6 5 5 4 4
8 2 4 4 5 2 4 2 5 3 4 4 3 4 5 8 10 11 11 10 9 9 9 10 11 11 11 12 11 11 11 9 9 8 9 7 6 6 8 9 8 7 6 6 6 6 6 5 4
2 3 4 5 4 4 4 2 6 5 5 4 4 5 6 7 9 11 11 10 10 10 10 10 11 10 10 11 11 11 12 11 12 10 10 8 6 6 8 9 8 7 7 7 6 6 6 6 5
5 9 8 5 5 5 3 3 5 6 5 2 1 2 4 6 7 10 12 11 11 11 10 10 10 9 9 10 9 9 10 9 8 10 9 9 8 8 8 9 8 8 8 8 6 5 6 5 5
5 5 10 8 3 1 2 3 5 4 4 3 2 1 2 5 8 9 10 10 10 10 10 10 10 9 9 9 8 8 9 9 9 9 9 8 7 8 8 9 9 8 8 8 7 5 6 5 5
8 7 6 6 5 2 2 3 4 5 4 2 1 0 1 4 6 8 9 9 9 9 8 8 9 8 7 8 8 8 7 8 8 9 9 9 8 8 8 9 9 9 8 8 7 6 5 6 5
2 3 5 5 6 6 4 5 4 7 6 4 3 2 3 5 5 7 7 8 8 8 8 8 8 7 7 8 7 7 6 6 6 7 8 8 8 8 8 9 9 9 8 8 8 7 6 6 5
5 5 7 5 3 5 5 5 3 5 3 3 4 4 5 6 6 6 7 7 7 8 8 8 8 8 8 8 7 7 6 6 6 6 7 7 7 7 8 8 8 9 8 8 9 8 7 6 6
Wind_Direction
177 176 176 124 46 37 294 270 124 82 65 67 86 95 100 98 137 146 137 139 137 144 149 148 144 140 136 133 130 128 125 122 119 118 117 117 117 116 117 117 117 116 115 114 114 114 115 115 116
168 182 156 43 66 23 291 230 107 105 116 100 87 89 81 77 95 111 124 139 140 143 146 147 146 143 139 137 135 133 131 128 125 124 122 121 120 120 120 119 119 119 118 117 116 116 117 117 117
200 191 122 68 103 211 251 181 131 118 115 105 92 79 90 118 118 124 140 139 137 141 145 149 147 145 142 141 139 138 137 134 132 130 128 126 124 123 122 122 122 122 121 121 119 118 118 118 117
157 78 47 72 259 252 236 237 152 118 95 94 98 75 75 125 131 134 137 139 138 140 144 150 148 147 145 144 143 142 141 139 137 135 133 131 129 127 126 125 125 125 125 123 121 120 119 118 117
98 92 47 310 264 256 248 220 160 121 121 104 100 98 59 68 123 133 139 140 139 140 144 150 150 149 148 147 146 145 144 142 141 139 137 135 134 132 131 130 129 128 127 126 126 124 122 120 117
56 77 69 286 279 279 260 219 133 121 121 111 104 108 86 124 131 140 141 141 142 145 145 149 151 151 151 150 149 148 147 146 145 143 141 139 138 137 135 134 133 133 131 132 131 129 127 123 116
134 117 216 247 281 290 273 215 146 135 128 134 131 107 115 139 140 141 139 138 141 144 144 146 152 153 153 153 152 152 151 149 148 146 145 143 143 141 139 138 137 138 138 139 138 135 132 126 118
170 118 277 260 261 269 262 184 155 140 131 134 134 137 157 159 143 138 136 136 140 143 146 146 150 151 153 155 156 155 154 153 151 151 149 148 147 145 144 143 143 143 144 145 145 142 136 127 117
164 99 246 240 240 270 286 66 108 111 125 140 140 154 153 148 141 139 138 139 145 149 152 151 151 150 151 155 159 158 158 157 156 156 154 151 146 146 148 151 152 151 152 152 152 150 145 132 116
155 190 231 228 230 253 280 151 146 103 111 100 98 118 138 147 149 150 153 155 158 161 163 161 159 156 156 161 157 158 158 158 156 157 154 152 153 155 158 161 160 159 161 162 165 163 157 134 117
188 216 245 257 255 247 228 188 148 130 143 155 149 149 151 155 157 159 162 165 165 165 166 167 166 163 165 157 156 157 155 156 158 161 160 160 162 165 162 163 166 166 170 174 180 180 176 158 141
243 257 262 268 269 260 222 184 154 152 186 172 159 155 158 163 166 166 166 169 165 166 168 166 167 169 168 159 162 161 161 163 168 173 172 165 160 162 165 168 173 177 181 187 193 199 208 198 173
248 262 266 268 271 249 219 211 187 184 166 155 152 154 161 167 169 167 164 164 164 167 169 168 170 173 170 162 169 168 169 172 175 177 180 173 166 168 171 178 185 192 193 191 199 205 189 172 164
251 266 279 275 270 264 209 257 127 179 149 149 152 159 165 170 171 163 163 166 170 172 169 170 173 174 170 170 174 170 174 175 174 175 181 178 172 168 170 176 184 194 195 192 190 184 173 155 153
281 296 302 283 272 252 107 335 234 168 148 152 159 163 167 174 174 176 172 171 171 173 168 171 172 170 171 173 176 172 175 172 172 175 177 175 172 171 171 171 180 190 187 177 166 158 140 134 127
345 335 304 293 292 275 120 244 255 173 151 157 162 166 169 172 181 184 177 172 171 168 167 171 172 171 171 172 170 166 169 169 171 170 170 169 169 169 165 164 173 173 161 150 146 138 123 120 125
352 295 280 296 295 258 167 219 228 189 162 165 170 173 175 177 187 187 181 172 169 168 167 169 168 171 173 168 163 159 162 167 167 164 164 166 167 166 161 162 162 157 146 151 159 134 136 140 148
252 271 284 278 289 323 193 234 226 191 173 172 173 177 180 186 193 185 177 170 165 165 167 169 168 170 168 160 152 151 157 165 160 159 164 164 165 165 160 158 157 149 145 150 142 132 126 140 158
245 274 282 278 283 318 276 249 236 199 183 177 177 178 181 194 192 176 171 166 162 163 166 170 169 170 166 162 163 162 166 168 166 169 165 163 164 165 160 162 156 153 159 164 154 137 131 132 132
252 266 272 282 293 303 277 281 266 211 202 188 182 179 179 176 167 165 167 168 169 169 169 171 172 171 172 172 167 165 159 162 167 169 167 168 168 170 172 164 166 160 155 155 156 141 135 156 144
254 246 249 253 297 6 54 333 310 275 240 186 175 174 171 172 172 169 169 171 170 174 176 176 177 175 173 164 151 144 133 130 148 170 179 177 176 177 174 169 165 164 163 167 172 159 153 165 181
250 247 243 246 227 285 111 270 292 285 297 215 180 177 177 175 167 168 170 172 176 179 178 175 176 175 172 166 166 167 173 181 188 178 179 179 179 179 178 173 168 166 166 170 180 171 161 154 173
233 241 241 238 164 25 3 105 291 343 304 270 222 198 181 172 170 172 175 177 176 173 174 173 172 173 173 174 176 177 182 186 173 165 173 181 185 186 185 178 173 171 171 177 176 164 165 164 167
228 240 9 37 70 12 265 173 280 274 262 272 253 218 188 175 175 174 173 167 170 173 174 173 174 180 178 177 179 181 182 179 171 176 181 186 187 190 189 181 178 177 174 179 183 180 174 175 170
205 108 25 358 8 255 257 171 243 274 275 250 224 225 197 173 173 171 167 168 174 179 179 178 178 184 180 176 182 186 188 184 186 185 188 187 187 194 196 187 180 180 180 180 180 181 182 179 179
203 150 162 192 221 259 309 228 262 284 294 290 194 188 166 165 174 170 169 172 176 179 179 177 180 182 180 181 188 191 190 190 193 189 187 192 195 199 192 187 184 184 182 184 180 183 190 183 187
177 178 173 148 171 168 280 290 307 319 350 9 41 100 140 163 168 165 165 166 168 171 173 172 173 174 180 182 183 190 191 189 189 187 189 193 195 198 191 188 184 186 184 181 175 183 190 185 192
166 159 102 123 158 218 257 249 239 253 257 294 35 72 197 157 160 165 168 169 168 167 166 166 170 178 182 182 186 191 190 188 185 185 189 188 192 193 186 185 183 185 184 181 179 182 186 184 197
146 123 121 133 152 159 207 258 233 208 214 197 192 181 175 164 168 167 170 171 164 161 165 168 173 175 179 181 182 181 182 182 182 184 188 184 182 185 184 185 183 186 187 182 181 186 184 188 201
153 161 140 148 209 163 164 251 264 182 205 202 199 185 163 161 163 164 164 164 158 160 166 170 174 179 184 181 178 181 181 177 179 183 184 179 180 185 187 183 183 188 188 183 184 188 188 189 197
Height
1500 1500 1500 1501 1502 1507 1506 1492 1481 1479 1480 1480 1480 1482 1486 1491 1497 1505 1502 1504 1508 1512 1517 1520 1523 1525 1527 1528 1530 1531 1533 1534 1535 1537 1538 1539 1540 1541 1542 1543 1544 1545 1546 1547 1547 1548 1549 1550 1551
1500 1501 1502 1501 1507 1516 1505 1486 1482 1479 1480 1481 1483 1484 1487 1492 1493 1496 1500 1505 1509 1513 1517 1520 1523 1525 1527 1529 1531 1532 1534 1535 1537 1538 1539 1540 1542 1543 1544 1545 1546 1547 1547 1548 1549 1550 1551 1552 1553
1500 1501 1502 1503 1509 1512 1501 1484 1479 1478 1480 1480 1485 1487 1489 1493 1494 1496 1500 1505 1510 1514 1517 1520 1523 1526 1528 1530 1532 1533 1535 1536 1538 1539 1541 1542 1543 1544 1545 1546 1547 1548 1549 1550 1551 1552 1553 1554 1555
1500 1502 1503 1508 1508 1497 1489 1482 1477 1477 1481 1482 1484 1490 1492 1494 1494 1496 1501 1506 1510 1514 1518 1521 1524 1526 1529 1530 1532 1534 1536 1537 1539 1540 1542 1543 1544 1545 1546 1548 1549 1550 1551 1552 1553 1554 1555 1556 1557
1500 1501 1506 1511 1504 1489 1480 1477 1476 1477 1480 1483 1484 1490 1494 1496 1496 1498 1502 1506 1510 1514 1518 1521 1524 1527 1529 1531 1533 1535 1536 1538 1540 1541 1543 1544 1545 1547 1548 1549 1550 1551 1552 1554 1555 1556 1557 1558 1559
1500 1500 1511 1513 1498 1484 1478 1476 1476 1477 1480 1483 1486 1491 1496 1497 1497 1500 1504 1507 1510 1514 1518 1521 1524 1527 1529 1531 1533 1535 1537 1539 1541 1542 1544 1545 1546 1548 1549 1550 1551 1553 1554 1555 1556 1558 1559 1560 1561
1500 1502 1507 1503 1495 1486 1477 1475 1476 1477 1480 1482 1484 1491 1497 1498 1499 1502 1505 1508 1511 1514 1517 1521 1524 1527 1529 1531 1534 1536 1538 1540 1541 1543 1544 1546 1547 1549 1550 1551 1553 1554 1555 1557 1558 1559 1561 1562 1563
1497 1500 1503 1499 1493 1486 1476 1475 1476 1476 1479 1482 1482 1487 1494 1497 1499 1503 1506 1509 1512 1515 1517 1520 1524 1526 1529 1531 1534 1536 1538 1540 1542 1543 1545 1547 1548 1550 1551 1553 1554 1555 1556 1558 1559 1560 1562 1563 1564
1495 1503 1506 1496 1489 1482 1475 1475 1476 1476 1477 1480 1482 1483 1488 1494 1498 1502 1505 1509 1512 1514 1517 1520 1523 1525 1528 1531 1533 1536 1538 1540 1542 1544 1546 1547 1549 1550 1552 1554 1555 1557 1558 1559 1560 1562 1563 1564 1566
1492 1502 1494 1481 1479 1478 1475 1474 1476 1478 1479 1480 1483 1486 1489 1493 1495 1498 1501 1505 1508 1512 1516 1519 1521 1524 1527 1530 1532 1535 1537 1540 1542 1544 1546 1548 1550 1551 1553 1555 1556 1558 1559 1560 1562 1563 1564 1565 1566
1487 1489 1480 1476 1475 1475 1474 1473 1474 1476 1480 1478 1480 1485 1488 1491 1494 1496 1498 1501 1505 1509 1513 1517 1521 1523 1526 1529 1531 1534 1537 1539 1542 1544 1546 1548 1550 1552 1554 1555 1557 1558 1560 1561 1562 1564 1565 1566 1567
1483 1478 1476 1473 1471 1472 1472 1472 1473 1472 1474 1474 1475 1479 1485 1488 1491 1493 1496 1500 1503 1507 1511 1515 1519 1522 1526 1528 1531 1533 1536 1539 1541 1544 1546 1548 1550 1552 1554 1556 1558 1559 1561 1562 1563 1564 1566 1567 1568
1480 1476 1473 1470 1469 1469 1469 1469 1470 1470 1471 1474 1476 1478 1481 1484 1488 1492 1495 1498 1502 1505 1509 1513 1517 1521 1524 1527 1530 1533 1535 1538 1541 1543 1545 1548 1550 1552 1554 1556 1558 1559 1561 1562 1563 1565 1566 1567 1568
1475 1472 1470 1468 1466 1466 1467 1468 1469 1470 1470 1473 1476 1478 1481 1483 1487 1491 1494 1497 1499 1503 1507 1511 1515 1520 1523 1526 1529 1531 1534 1537 1540 1542 1545 1547 1550 1552 1554 1556 1558 1559 1561 1562 1564 1565 1566 1567 1568
1472 1472 1469 1465 1464 1464 1466 1471 1468 1468 1470 1473 1475 1477 1478 1481 1485 1488 1490 1493 1497 1501 1505 1509 1513 1518 1521 1524 1528 1530 1533 1536 1539 1541 1544 1546 1549 1551 1554 1555 1557 1559 1561 1562 1563 1565 1566 1567 1568
1472 1476 1480 1467 1463 1462 1469 1480 1469 1468 1469 1472 1474 1475 1477 1480 1483 1486 1489 1492 1495 1499 1503 1507 1511 1515 1519 1522 1526 1529 1532 1535 1538 1540 1543 1545 1548 1550 1553 1555 1557 1558 1560 1561 1563 1564 1565 1567 1568
1482 1488 1484 1473 1462 1461 1467 1475 1468 1468 1468 1470 1472 1473 1475 1479 1482 1485 1488 1490 1492 1496 1500 1505 1509 1513 1517 1521 1524 1527 1530 1533 1536 1539 1541 1544 1547 1549 1551 1554 1556 1557 1559 1560 1562 1563 1565 1566 1567
1491 1487 1482 1477 1464 1462 1467 1469 1465 1466 1467 1467 1470 1471 1473 1476 1479 1482 1485 1489 1491 1495 1498 1502 1507 1511 1515 1518 1522 1525 1528 1531 1534 1536 1539 1542 1545 1547 1550 1552 1554 1556 1558 1559 1561 1562 1564 1565 1566
1478 1481 1482 1472 1462 1464 1468 1468 1464 1464 1466 1466 1468 1469 1471 1473 1477 1480 1483 1487 1490 1493 1495 1499 1503 1507 1511 1515 1519 1522 1525 1528 1531 1534 1537 1540 1543 1545 1548 1550 1552 1554 1556 1558 1559 1561 1562 1564 1565
1475 1480 1479 1469 1460 1463 1468 1468 1463 1462 1463 1463 1464 1467 1468 1472 1475 1478 1481 1484 1486 1490 1493 1497 1500 1504 1508 1512 1515 1519 1523 1526 1529 1532 1535 1537 1540 1543 1545 1548 1550 1552 1554 1556 1558 1559 1560 1562 1564
1472 1476 1474 1471 1463 1463 1469 1475 1469 1464 1462 1462 1463 1464 1467 1468 1471 1474 1477 1480 1483 1487 1490 1493 1497 1501 1505 1508 1513 1517 1521 1524 1526 1529 1532 1534 1537 1540 1543 1546 1548 1550 1552 1554 1555 1557 1559 1560 1562
1473 1461 1462 1463 1472 1482 1476 1494 1476 1467 1464 1462 1463 1464 1465 1467 1469 1472 1475 1478 1480 1484 1488 1491 1494 1498 1502 1505 1509 1512 1515 1518 1521 1525 1528 1532 1534 1538 1541 1543 1546 1548 1550 1552 1553 1555 1557 1559 1560
1461 1454 1456 1461 1470 1482 1481 1490 1485 1471 1471 1466 1463 1463 1464 1465 1467 1470 1473 1476 1479 1482 1485 1488 1492 1495 1498 1502 1505 1509 1512 1515 1519 1523 1526 1529 1532 1535 1538 1541 1543 1545 1547 1549 1551 1553 1555 1556 1558
1448 1454 1461 1469 1480 1497 1487 1490 1490 1478 1472 1466 1463 1463 1464 1465 1467 1469 1472 1475 1479 1482 1484 1487 1489 1492 1495 1498 1502 1505 1508 1511 1515 1518 1522 1526 1529 1532 1535 1538 1540 1542 1544 1546 1548 1550 1552 1554 1556
1449 1471 1493 1496 1504 1501 1483 1486 1486 1469 1464 1462 1461 1461 1462 1464 1466 1468 1470 1474 1477 1480 1482 1484 1487 1489 1492 1495 1498 1502 1505 1507 1511 1515 1518 1522 1525 1528 1531 1534 1536 1539 1541 1543 1545 1547 1549 1551 1553
1451 1466 1493 1504 1506 1498 1485 1488 1478 1463 1459 1457 1458 1459 1461 1463 1466 1467 1469 1472 1475 1478 1480 1482 1484 1487 1489 1492 1495 1498 1501 1504 1508 1511 1515 1518 1521 1525 1528 1531 1533 1535 1538 1540 1542 1544 1546 1548 1550
1449 1459 1462 1483 1488 1497 1493 1484 1472 1461 1459 1457 1457 1459 1461 1463 1465 1467 1469 1471 1474 1476 1478 1480 1482 1485 1487 1490 1492 1495 1497 1501 1504 1508 1511 1515 1518 1521 1525 1527 1529 1532 1534 1537 1539 1541 1543 1544 1546
1437 1446 1466 1481 1496 1502 1494 1488 1483 1469 1463 1459 1458 1459 1461 1463 1465 1467 1469 1471 1473 1474 1477 1479 1481 1483 1485 1487 1490 1492 1495 1498 1501 1505 1508 1511 1514 1518 1520 1523 1526 1529 1531 1533 1536 1538 1539 1541 1543
1442 1449 1460 1474 1481 1496 1501 1492 1465 1462 1458 1458 1458 1459 1460 1463 1465 1466 1468 1470 1472 1474 1476 1478 1480 1482 1484 1485 1488 1490 1493 1495 1498 1501 1504 1507 1511 1514 1517 1520 1523 1525 1528 1530 1532 1534 1536 1538 1540
1436 1445 1457 1475 1479 1482 1490 1487 1458 1457 1456 1457 1458 1459 1460 1461 1463 1465 1467 1469 1471 1472 1474 1476 1478 1480 1482 1484 1486 1488 1490 1493 1495 1498 1501 1505 1508 1511 1514 1517 1519 1522 1524 1527 1529 1531 1533 1535 1536